| time (UTC) | temp F | wind direction | speed knots | gust knots | rain 1hr in | rain 24hr in | rain mn in | humidity % | barometer mb |
| 20260831234210 | 78 | 121 | 0.9 | 1.7 | 0.00 | 0.30 | 0.30 | 96 | 1009.3 |
| 20260831233705 | 78 | 122 | 0.0 | 0.9 | 0.00 | 0.30 | 0.30 | 96 | 1008.8 |
| 20260831233201 | 78 | 114 | 1.7 | 1.7 | 0.00 | 0.30 | 0.30 | 98 | 1009.3 |
| 20260831232655 | 78 | 121 | 0.0 | 0.9 | 0.00 | 0.30 | 0.30 | 98 | 1010.5 |
| 20260831232152 | 78 | 127 | 0.0 | 0.0 | 0.00 | 0.30 | 0.30 | 98 | 1010.8 |
| 20260831231648 | 78 | 131 | 0.9 | 0.9 | 0.00 | 0.30 | 0.30 | 98 | 1010.8 |
| 20260831231143 | 78 | 83 | 0.0 | 0.0 | 0.00 | 0.30 | 0.30 | 98 | 1011.0 |
| 20260831230638 | 79 | 89 | 0.0 | 0.9 | 0.00 | 0.30 | 0.30 | 98 | 1010.6 |
| 20260831230133 | 79 | 87 | 0.0 | 0.9 | 0.00 | 0.30 | 0.30 | 97 | 1010.4 |
| 20260831225628 | 79 | 89 | 0.0 | 0.0 | 0.00 | 0.30 | 0.30 | 98 | 1010.3 |
| 20260831225123 | 80 | 93 | 0.0 | 0.0 | 0.00 | 0.30 | 0.30 | 97 | 1010.1 |
| 20260831224618 | 79 | 87 | 0.0 | 0.0 | 0.00 | 0.30 | 0.30 | 97 | 1010.1 |
| 20260831224113 | 79 | 97 | 0.0 | 0.0 | 0.00 | 0.30 | 0.30 | 96 | 1010.3 |
| 20260831223609 | 79 | 92 | 0.0 | 0.0 | 0.00 | 0.30 | 0.30 | 95 | 1010.5 |
| 20260831223105 | 79 | 94 | 0.0 | 0.0 | 0.05 | 0.30 | 0.30 | 95 | 1010.3 |
| 20260831222600 | 80 | 87 | 0.0 | 0.9 | 0.66 | 0.30 | 0.30 | 93 | 1010.2 |
| 20260831222100 | 83 | 70 | 0.9 | 0.9 | 0.59 | 0.28 | 0.28 | 88 | 1010.2 |
| 20260831221556 | 84 | 132 | 0.0 | 0.0 | 0.00 | 0.18 | 0.18 | 79 | 1010.4 |
| 20260831221051 | 84 | 111 | 0.0 | 0.0 | 0.00 | 0.18 | 0.18 | 80 | 1010.5 |
| 20260831220550 | 85 | 92 | 0.0 | 0.0 | 0.00 | 0.18 | 0.18 | 79 | 1010.2 |
| 20260831220046 | 86 | 98 | 0.0 | 0.0 | 0.00 | 0.18 | 0.18 | 77 | 1010.2 |
| 20260831215542 | 86 | 114 | 0.0 | 0.9 | 0.00 | 0.18 | 0.18 | 75 | 1009.9 |
| 20260831215037 | 86 | 158 | 1.7 | 1.7 | 0.00 | 0.18 | 0.18 | 72 | 1010.1 |
| 20260831214535 | 87 | 135 | 0.9 | 1.7 | 0.00 | 0.18 | 0.18 | 71 | 1010.0 |
| 20260831214031 | 86 | 210 | 2.6 | 5.2 | 0.00 | 0.18 | 0.18 | 71 | 1009.5 |
| 20260831213527 | 85 | 99 | 0.9 | 5.2 | 0.00 | 0.18 | 0.18 | 73 | 1009.7 |
| 20260831213022 | 85 | 114 | 0.9 | 1.7 | 0.00 | 0.18 | 0.18 | 76 | 1009.8 |
| 20260831212518 | 85 | 121 | 0.0 | 1.7 | 0.07 | 0.18 | 0.18 | 76 | 1009.7 |
| 20260831212013 | 86 | 203 | 2.6 | 4.3 | 0.07 | 0.18 | 0.18 | 73 | 1009.5 |
| 20260831211508 | 87 | 200 | 2.6 | 5.2 | 0.00 | 0.17 | 0.17 | 70 | 1010.0 |
| 20260831211007 | 88 | 215 | 2.6 | 6.1 | 0.00 | 0.17 | 0.17 | 70 | 1009.8 |
| 20260831210503 | 88 | 122 | 0.9 | 2.6 | 0.00 | 0.17 | 0.17 | 71 | 1009.7 |
| 20260831205958 | 88 | 118 | 0.0 | 1.7 | 0.00 | 0.17 | 0.17 | 73 | 1010.0 |
| 20260831205453 | 88 | 121 | 0.9 | 1.7 | 0.00 | 0.17 | 0.17 | 73 | 1009.8 |
| 20260831204949 | 87 | 149 | 1.7 | 1.7 | 0.00 | 0.17 | 0.17 | 74 | 1010.2 |
| 20260831204448 | 88 | 135 | 0.9 | 1.7 | 0.00 | 0.17 | 0.17 | 73 | 1010.2 |
| 20260831203942 | 88 | 119 | 0.9 | 1.7 | 0.00 | 0.17 | 0.17 | 76 | 1010.1 |
| 20260831203436 | 87 | 140 | 0.9 | 2.6 | 0.00 | 0.17 | 0.17 | 74 | 1010.2 |
| 20260831202934 | 87 | 189 | 2.6 | 2.6 | 0.00 | 0.17 | 0.17 | 76 | 1010.5 |
| 20260831202430 | 85 | 103 | 1.7 | 2.6 | 0.00 | 0.17 | 0.17 | 76 | 1010.6 |
| 20260831201924 | 85 | 97 | 0.0 | 1.7 | 0.00 | 0.17 | 0.17 | 80 | 1010.6 |
| 20260831201422 | 86 | 82 | 0.9 | 0.9 | 0.00 | 0.17 | 0.17 | 78 | 1010.7 |
| 20260831200918 | 86 | 279 | 1.7 | 1.7 | 0.00 | 0.17 | 0.17 | 76 | 1010.5 |
| 20260831200413 | 89 | 260 | 1.7 | 1.7 | 0.00 | 0.17 | 0.17 | 71 | 1010.5 |
| 20260831195908 | 88 | 158 | 0.9 | 0.9 | 0.00 | 0.17 | 0.17 | 75 | 1010.2 |
| 20260831195404 | 85 | 118 | 0.0 | 0.0 | 0.00 | 0.17 | 0.17 | 76 | 1010.2 |
| 20260831194859 | 84 | 98 | 0.0 | 0.0 | 0.00 | 0.17 | 0.17 | 79 | 1010.3 |
| 20260831194354 | 84 | 99 | 0.0 | 0.9 | 0.00 | 0.17 | 0.17 | 81 | 1010.3 |
| 20260831193853 | 84 | 125 | 0.0 | 2.6 | 0.00 | 0.17 | 0.17 | 78 | 1010.2 |
| 20260831193349 | 86 | 159 | 0.9 | 2.6 | 0.00 | 0.17 | 0.17 | 72 | 1010.1 |
| 20260831192843 | 86 | 155 | 0.9 | 2.6 | 0.00 | 0.17 | 0.17 | 71 | 1010.3 |
| 20260831192338 | 86 | 150 | 0.9 | 2.6 | 0.00 | 0.17 | 0.17 | 69 | 1010.7 |
| 20260831191834 | 87 | 293 | 3.5 | 7.0 | 0.00 | 0.17 | 0.17 | 67 | 1010.7 |
| 20260831191331 | 89 | 184 | 0.9 | 7.8 | 0.00 | 0.17 | 0.17 | 64 | 1010.5 |
| 20260831190826 | 89 | 270 | 2.6 | 5.2 | 0.00 | 0.17 | 0.17 | 64 | 1010.6 |
| 20260831190326 | 89 | 170 | 1.7 | 4.3 | 0.00 | 0.17 | 0.17 | 65 | 1010.3 |
| 20260831185825 | 89 | 292 | 2.6 | 4.3 | 0.00 | 0.17 | 0.17 | 64 | 1010.4 |
| 20260831185321 | 89 | 283 | 4.3 | 6.1 | 0.00 | 0.17 | 0.17 | 65 | 1010.7 |
| 20260831184820 | 88 | 145 | 1.7 | 2.6 | 0.00 | 0.17 | 0.17 | 65 | 1010.4 |
| 20260831184316 | 88 | 196 | 4.3 | 7.0 | 0.00 | 0.17 | 0.17 | 65 | 1010.6 |
| 20260831183811 | 88 | 217 | 1.7 | 4.3 | 0.00 | 0.17 | 0.17 | 67 | 1010.4 |
| 20260831183310 | 87 | 270 | 3.5 | 7.0 | 0.00 | 0.17 | 0.17 | 66 | 1010.6 |
| 20260831182809 | 87 | 190 | 1.7 | 4.3 | 0.00 | 0.17 | 0.17 | 66 | 1010.6 |
| 20260831182305 | 87 | 108 | 0.0 | 7.0 | 0.00 | 0.17 | 0.17 | 66 | 1010.3 |
| 20260831181800 | 87 | 218 | 2.6 | 4.3 | 0.00 | 0.17 | 0.17 | 64 | 1010.7 |
| 20260831181254 | 86 | 275 | 4.3 | 6.1 | 0.00 | 0.17 | 0.17 | 67 | 1010.7 |
| 20260831180749 | 86 | 171 | 2.6 | 5.2 | 0.00 | 0.17 | 0.17 | 65 | 1010.6 |
| 20260831180244 | 86 | 152 | 3.5 | 5.2 | 0.00 | 0.17 | 0.17 | 65 | 1010.7 |
| 20260831175743 | 86 | 169 | 1.7 | 4.3 | 0.00 | 0.17 | 0.17 | 67 | 1010.6 |
| 20260831175240 | 85 | 182 | 2.6 | 6.1 | 0.00 | 0.17 | 0.17 | 69 | 1010.8 |
| 20260831174735 | 85 | 183 | 2.6 | 2.6 | 0.00 | 0.17 | 0.17 | 68 | 1011.0 |
| 20260831174231 | 84 | 210 | 0.9 | 5.2 | 0.00 | 0.17 | 0.17 | 68 | 1011.1 |
| 20260831173729 | 84 | 210 | 1.7 | 5.2 | 0.00 | 0.17 | 0.17 | 68 | 1011.0 |
| 20260831173224 | 84 | 281 | 4.3 | 6.1 | 0.00 | 0.17 | 0.17 | 68 | 1011.1 |
| 20260831172719 | 83 | 317 | 2.6 | 8.7 | 0.00 | 0.17 | 0.17 | 69 | 1011.1 |
| 20260831172214 | 83 | 219 | 1.7 | 4.3 | 0.00 | 0.17 | 0.17 | 70 | 1011.0 |
| 20260831171709 | 83 | 221 | 0.9 | 1.7 | 0.00 | 0.17 | 0.17 | 71 | 1011.1 |
| 20260831171207 | 82 | 218 | 0.9 | 6.1 | 0.00 | 0.17 | 0.17 | 72 | 1011.2 |
| 20260831170702 | 82 | 318 | 2.6 | 5.2 | 0.00 | 0.17 | 0.17 | 73 | 1011.1 |
| 20260831170159 | 81 | 235 | 1.7 | 2.6 | 0.00 | 0.17 | 0.17 | 75 | 1011.3 |
| 20260831165655 | 80 | 327 | 0.9 | 4.3 | 0.00 | 0.17 | 0.17 | 76 | 1011.4 |
| 20260831165151 | 79 | 237 | 0.9 | 6.1 | 0.00 | 0.17 | 0.17 | 78 | 1011.5 |
| 20260831164646 | 79 | 230 | 3.5 | 4.3 | 0.00 | 0.17 | 0.17 | 77 | 1011.6 |
| 20260831164143 | 79 | 232 | 1.7 | 2.6 | 0.00 | 0.17 | 0.17 | 79 | 1011.6 |
| 20260831163637 | 78 | 320 | 0.9 | 2.6 | 0.00 | 0.17 | 0.17 | 79 | 1011.7 |
| 20260831163133 | 78 | 233 | 2.6 | 4.3 | 0.00 | 0.17 | 0.17 | 81 | 1011.7 |
| 20260831162632 | 77 | 234 | 0.9 | 2.6 | 0.00 | 0.17 | 0.17 | 82 | 1012.1 |
| 20260831162130 | 77 | 316 | 0.9 | 1.7 | 0.00 | 0.17 | 0.17 | 84 | 1011.8 |
| 20260831161626 | 76 | 240 | 0.9 | 2.6 | 0.00 | 0.17 | 0.17 | 83 | 1011.7 |
| 20260831161122 | 76 | 324 | 1.7 | 2.6 | 0.00 | 0.17 | 0.17 | 85 | 1011.8 |
| 20260831160621 | 75 | 242 | 1.7 | 1.7 | 0.00 | 0.17 | 0.17 | 87 | 1012.1 |
| 20260831160116 | 74 | 236 | 2.6 | 4.3 | 0.00 | 0.17 | 0.17 | 88 | 1011.7 |
| 20260831155611 | 74 | 233 | 3.5 | 5.2 | 0.00 | 0.17 | 0.17 | 89 | 1011.9 |
| 20260831155107 | 73 | 322 | 2.6 | 4.3 | 0.00 | 0.17 | 0.17 | 91 | 1011.9 |
| 20260831154603 | 72 | 273 | 0.9 | 4.3 | 0.00 | 0.17 | 0.17 | 93 | 1012.1 |
| 20260831154102 | 71 | 242 | 0.9 | 1.7 | 0.00 | 0.17 | 0.17 | 95 | 1011.8 |
| 20260831153602 | 71 | 308 | 0.9 | 1.7 | 0.00 | 0.17 | 0.17 | 96 | 1012.2 |
| 20260831153059 | 71 | 259 | 0.9 | 1.7 | 0.00 | 0.17 | 0.17 | 96 | 1011.9 |
| 20260831152554 | 71 | 312 | 1.7 | 2.6 | 0.00 | 0.17 | 0.17 | 97 | 1012.3 |
| 20260831152049 | 71 | 303 | 0.0 | 0.0 | 0.00 | 0.17 | 0.17 | 98 | 1012.2 |
| 20260831151549 | 70 | 247 | 0.9 | 1.7 | 0.00 | 0.17 | 0.17 | 98 | 1012.1 |
| 20260831151049 | 70 | 298 | 0.0 | 0.9 | 0.00 | 0.17 | 0.17 | 98 | 1012.2 |
| 20260831150538 | 70 | 313 | 0.0 | 0.9 | 0.05 | 0.17 | 0.17 | 98 | 1012.3 |
| 20260831150035 | 70 | 318 | 0.9 | 0.9 | 0.00 | 0.16 | 0.16 | 98 | 1012.5 |
| 20260831145529 | 70 | 315 | 0.0 | 0.9 | 0.00 | 0.16 | 0.16 | 98 | 1012.2 |
| 20260831145025 | 70 | 310 | 0.0 | 0.0 | 0.00 | 0.16 | 0.16 | 98 | 1012.3 |
| 20260831144520 | 70 | 272 | 0.0 | 0.9 | 0.00 | 0.16 | 0.16 | 98 | 1012.3 |
| 20260831144015 | 70 | 305 | 0.0 | 0.9 | 0.00 | 0.16 | 0.16 | 98 | 1012.2 |
| 20260831143510 | 70 | 313 | 0.9 | 1.7 | 0.00 | 0.16 | 0.16 | 98 | 1012.1 |
| 20260831143005 | 70 | 321 | 0.9 | 0.9 | 0.14 | 0.16 | 0.16 | 98 | 1011.8 |
| 20260831142456 | 70 | 318 | 0.0 | 0.9 | 0.19 | 0.16 | 0.16 | 97 | 1011.7 |
| 20260831141950 | 70 | 237 | 1.7 | 1.7 | 0.05 | 0.14 | 0.14 | 98 | 1012.1 |
| 20260831141444 | 69 | 326 | 1.7 | 2.6 | 0.00 | 0.13 | 0.13 | 98 | 1012.3 |
| 20260831140939 | 69 | 267 | 0.0 | 0.9 | 0.00 | 0.13 | 0.13 | 98 | 1012.1 |
| 20260831140433 | 69 | 312 | 0.0 | 1.7 | 0.00 | 0.13 | 0.13 | 98 | 1012.2 |
| 20260831135932 | 69 | 310 | 0.0 | 1.7 | 0.00 | 0.13 | 0.13 | 99 | 1012.1 |
| 20260831135431 | 69 | 322 | 1.7 | 1.7 | 0.00 | 0.13 | 0.13 | 99 | 1012.2 |
| 20260831134926 | 69 | 320 | 0.9 | 1.7 | 0.00 | 0.13 | 0.13 | 99 | 1012.2 |
| 20260831134423 | 69 | 312 | 0.0 | 0.9 | 0.00 | 0.13 | 0.13 | 99 | 1012.2 |
| 20260831133923 | 69 | 315 | 0.0 | 0.0 | 0.07 | 0.13 | 0.13 | 99 | 1012.5 |
| 20260831133418 | 69 | 316 | 0.0 | 0.0 | 0.07 | 0.13 | 0.13 | 98 | 1012.3 |
| 20260831132918 | 69 | 312 | 0.0 | 0.9 | 0.00 | 0.12 | 0.12 | 98 | 1012.2 |
| 20260831132414 | 69 | 308 | 0.0 | 0.0 | 0.00 | 0.12 | 0.12 | 98 | 1012.4 |
| 20260831131913 | 69 | 247 | 0.9 | 0.9 | 0.00 | 0.12 | 0.12 | 97 | 1012.3 |
| 20260831131408 | 69 | 309 | 0.0 | 0.9 | 0.00 | 0.12 | 0.12 | 97 | 1012.1 |
| 20260831130904 | 69 | 310 | 0.0 | 0.9 | 0.00 | 0.12 | 0.12 | 97 | 1012.2 |
| 20260831130359 | 69 | 254 | 0.9 | 1.7 | 0.17 | 0.12 | 0.12 | 96 | 1012.1 |
| 20260831125858 | 69 | 313 | 0.9 | 0.9 | 0.40 | 0.12 | 0.12 | 97 | 1011.9 |
| 20260831125354 | 69 | 306 | 0.0 | 0.9 | 0.24 | 0.08 | 0.08 | 96 | 1012.5 |
| 20260831124848 | 70 | 306 | 0.0 | 0.9 | 0.07 | 0.05 | 0.05 | 95 | 1012.5 |
| 20260831124344 | 70 | 306 | 0.0 | 0.0 | 0.05 | 0.04 | 0.04 | 94 | 1012.2 |
| 20260831123839 | 71 | 309 | 0.0 | 0.0 | 0.19 | 0.04 | 0.04 | 92 | 1012.8 |
| 20260831123338 | 71 | 310 | 0.0 | 0.9 | 0.19 | 0.03 | 0.03 | 90 | 1012.6 |
| 20260831122833 | 72 | 310 | 0.9 | 0.9 | 0.00 | 0.00 | 0.00 | 87 | 1012.5 |
| 20260831122329 | 72 | 307 | 0.0 | 0.9 | 0.00 | 0.00 | 0.00 | 87 | 1012.3 |
| 20260831121829 | 73 | 248 | 0.0 | 0.9 | 0.00 | 0.00 | 0.00 | 85 | 1012.1 |
| 20260831121325 | 73 | 246 | 0.0 | 0.9 | 0.00 | 0.00 | 0.00 | 82 | 1011.5 |
| 20260831120820 | 73 | 247 | 0.0 | 0.9 | 0.00 | 0.00 | 0.00 | 82 | 1011.4 |
| 20260831120314 | 73 | 244 | 0.9 | 1.7 | 0.00 | 0.00 | 0.00 | 82 | 1011.4 |
| 20260831115810 | 73 | 248 | 0.0 | 1.7 | 0.00 | 0.00 | 0.00 | 82 | 1011.1 |
| 20260831115306 | 73 | 241 | 1.7 | 1.7 | 0.00 | 0.00 | 0.00 | 82 | 1011.1 |
| 20260831114804 | 73 | 242 | 0.9 | 4.3 | 0.00 | 0.00 | 0.00 | 83 | 1010.9 |
| 20260831114259 | 72 | 242 | 0.9 | 5.2 | 0.00 | 0.00 | 0.00 | 83 | 1011.0 |
| 20260831113754 | 73 | 246 | 1.7 | 4.3 | 0.00 | 0.00 | 0.00 | 83 | 1011.0 |
| 20260831113248 | 73 | 245 | 1.7 | 2.6 | 0.00 | 0.00 | 0.00 | 83 | 1010.9 |
| 20260831112748 | 73 | 242 | 1.7 | 2.6 | 0.00 | 0.00 | 0.00 | 82 | 1011.0 |
| 20260831112243 | 73 | 243 | 0.9 | 1.7 | 0.00 | 0.00 | 0.00 | 82 | 1010.8 |
| 20260831111739 | 73 | 243 | 2.6 | 2.6 | 0.00 | 0.00 | 0.00 | 81 | 1010.8 |
| 20260831111235 | 73 | 257 | 1.7 | 5.2 | 0.00 | 0.00 | 0.00 | 81 | 1010.5 |
| 20260831110731 | 73 | 265 | 0.9 | 1.7 | 0.00 | 0.00 | 0.00 | 81 | 1010.6 |
| 20260831110226 | 73 | 263 | 0.9 | 1.7 | 0.00 | 0.00 | 0.00 | 81 | 1010.8 |
| 20260831105724 | 73 | 276 | 0.9 | 0.9 | 0.00 | 0.00 | 0.00 | 81 | 1010.7 |
| 20260831105220 | 73 | 266 | 1.7 | 2.6 | 0.00 | 0.00 | 0.00 | 80 | 1010.8 |
| 20260831104715 | 73 | 241 | 0.9 | 2.6 | 0.00 | 0.00 | 0.00 | 80 | 1010.8 |
| 20260831104211 | 73 | 249 | 2.6 | 4.3 | 0.00 | 0.00 | 0.00 | 80 | 1011.0 |
| 20260831103711 | 73 | 272 | 1.7 | 2.6 | 0.00 | 0.00 | 0.00 | 80 | 1011.0 |
| 20260831103207 | 73 | 257 | 1.7 | 1.7 | 0.00 | 0.00 | 0.00 | 81 | 1010.8 |
| 20260831102706 | 73 | 269 | 0.0 | 1.7 | 0.00 | 0.00 | 0.00 | 81 | 1011.0 |
| 20260831102201 | 73 | 259 | 0.9 | 0.9 | 0.00 | 0.00 | 0.00 | 81 | 1011.1 |
| 20260831101656 | 73 | 268 | 1.7 | 1.7 | 0.00 | 0.00 | 0.00 | 80 | 1011.0 |
| 20260831101152 | 74 | 264 | 0.9 | 2.6 | 0.00 | 0.00 | 0.00 | 79 | 1010.9 |
| 20260831100648 | 74 | 249 | 1.7 | 2.6 | 0.00 | 0.00 | 0.00 | 79 | 1010.9 |
| 20260831100144 | 74 | 259 | 0.9 | 2.6 | 0.00 | 0.00 | 0.00 | 79 | 1010.8 |
| 20260831095642 | 74 | 255 | 0.9 | 2.6 | 0.00 | 0.00 | 0.00 | 79 | 1010.8 |
| 20260831095137 | 74 | 276 | 0.9 | 1.7 | 0.00 | 0.00 | 0.00 | 80 | 1010.7 |
| 20260831094632 | 74 | 260 | 0.9 | 1.7 | 0.00 | 0.00 | 0.00 | 80 | 1010.7 |
| 20260831094129 | 74 | 264 | 0.9 | 1.7 | 0.00 | 0.00 | 0.00 | 80 | 1010.6 |
| 20260831093624 | 74 | 245 | 2.6 | 4.3 | 0.00 | 0.00 | 0.00 | 80 | 1010.7 |
| 20260831093120 | 74 | 276 | 0.0 | 2.6 | 0.00 | 0.00 | 0.00 | 80 | 1010.8 |
| 20260831092616 | 74 | 285 | 0.0 | 0.9 | 0.00 | 0.00 | 0.00 | 80 | 1011.0 |
| 20260831092111 | 74 | 277 | 0.0 | 0.9 | 0.00 | 0.00 | 0.00 | 80 | 1011.2 |
| 20260831091611 | 74 | 280 | 0.9 | 4.3 | 0.00 | 0.00 | 0.00 | 80 | 1011.0 |
| 20260831091106 | 74 | 260 | 0.9 | 1.7 | 0.00 | 0.00 | 0.00 | 80 | 1010.8 |
| 20260831090602 | 74 | 270 | 1.7 | 2.6 | 0.00 | 0.00 | 0.00 | 80 | 1011.0 |
| 20260831090058 | 74 | 282 | 0.0 | 0.9 | 0.00 | 0.00 | 0.00 | 80 | 1010.8 |
| 20260831085553 | 74 | 268 | 0.9 | 1.7 | 0.00 | 0.00 | 0.00 | 81 | 1010.9 |
| 20260831085048 | 74 | 282 | 0.9 | 0.9 | 0.00 | 0.00 | 0.00 | 82 | 1011.0 |
| 20260831084544 | 74 | 270 | 0.9 | 1.7 | 0.00 | 0.00 | 0.00 | 82 | 1011.2 |
| 20260831084040 | 74 | 282 | 0.0 | 0.9 | 0.00 | 0.00 | 0.00 | 82 | 1011.0 |
| 20260831083536 | 74 | 258 | 0.0 | 1.7 | 0.00 | 0.00 | 0.00 | 82 | 1011.2 |
| 20260831083030 | 74 | 248 | 0.0 | 1.7 | 0.00 | 0.00 | 0.00 | 83 | 1011.0 |
| 20260831082530 | 74 | 249 | 0.9 | 1.7 | 0.00 | 0.00 | 0.00 | 82 | 1011.1 |
| 20260831082025 | 74 | 250 | 0.9 | 0.9 | 0.00 | 0.00 | 0.00 | 83 | 1010.9 |
| 20260831081521 | 74 | 247 | 0.9 | 0.9 | 0.00 | 0.00 | 0.00 | 82 | 1011.0 |
| 20260831081016 | 74 | 247 | 0.0 | 1.7 | 0.00 | 0.00 | 0.00 | 82 | 1010.9 |
| 20260831080510 | 74 | 250 | 0.9 | 2.6 | 0.00 | 0.00 | 0.00 | 82 | 1010.8 |
| 20260831080007 | 74 | 240 | 1.7 | 2.6 | 0.00 | 0.00 | 0.00 | 82 | 1010.9 |
| 20260831075501 | 74 | 242 | 0.0 | 1.7 | 0.00 | 0.00 | 0.00 | 83 | 1011.0 |
| 20260831074957 | 74 | 242 | 0.9 | 1.7 | 0.00 | 0.00 | 0.00 | 82 | 1011.0 |
| 20260831074451 | 75 | 248 | 2.6 | 4.3 | 0.00 | 0.00 | 0.00 | 82 | 1010.9 |
| 20260831073950 | 75 | 241 | 1.7 | 2.6 | 0.00 | 0.00 | 0.00 | 81 | 1011.0 |
| 20260831073445 | 75 | 241 | 1.7 | 4.3 | 0.00 | 0.00 | 0.00 | 81 | 1010.9 |
| 20260831072944 | 75 | 244 | 0.9 | 2.6 | 0.00 | 0.00 | 0.00 | 81 | 1011.0 |
| 20260831072440 | 75 | 243 | 0.9 | 0.9 | 0.00 | 0.00 | 0.00 | 81 | 1010.9 |
| 20260831071937 | 75 | 242 | 0.9 | 1.7 | 0.00 | 0.00 | 0.00 | 81 | 1011.2 |
| 20260831071435 | 75 | 242 | 1.7 | 1.7 | 0.00 | 0.00 | 0.00 | 82 | 1011.2 |
| 20260831070930 | 75 | 244 | 0.0 | 0.9 | 0.00 | 0.00 | 0.00 | 82 | 1011.1 |
| 20260831070430 | 75 | 285 | 0.9 | 1.7 | 0.00 | 0.00 | 0.00 | 82 | 1011.2 |
| 20260831065929 | 75 | 244 | 0.0 | 2.6 | 0.00 | 0.00 | 0.00 | 81 | 1011.1 |
| 20260831065427 | 75 | 263 | 0.9 | 2.6 | 0.00 | 0.00 | 0.00 | 82 | 1011.0 |
| 20260831064922 | 75 | 244 | 0.9 | 1.7 | 0.00 | 0.00 | 0.00 | 83 | 1011.2 |
| 20260831064417 | 75 | 242 | 0.9 | 2.6 | 0.00 | 0.00 | 0.00 | 83 | 1011.2 |
| 20260831063913 | 75 | 244 | 0.9 | 1.7 | 0.00 | 0.00 | 0.00 | 83 | 1011.4 |
| 20260831063408 | 75 | 239 | 2.6 | 2.6 | 0.00 | 0.00 | 0.00 | 84 | 1011.2 |
| 20260831062902 | 75 | 245 | 0.9 | 1.7 | 0.00 | 0.00 | 0.00 | 85 | 1011.2 |
| 20260831062358 | 75 | 245 | 0.9 | 1.7 | 0.00 | 0.00 | 0.00 | 85 | 1011.0 |
| 20260831061856 | 75 | 245 | 0.9 | 1.7 | 0.00 | 0.00 | 0.00 | 85 | 1010.9 |
| 20260831061355 | 75 | 244 | 0.9 | 2.6 | 0.00 | 0.00 | 0.00 | 85 | 1011.0 |
| 20260831060851 | 75 | 251 | 0.9 | 2.6 | 0.00 | 0.00 | 0.00 | 85 | 1011.1 |
| 20260831060346 | 75 | 240 | 0.9 | 5.2 | 0.00 | 0.00 | 0.00 | 84 | 1011.2 |
| 20260831055845 | 75 | 241 | 1.7 | 2.6 | 0.00 | 0.00 | 0.00 | 85 | 1011.1 |
| 20260831055341 | 75 | 244 | 0.9 | 1.7 | 0.00 | 0.00 | 0.00 | 85 | 1011.1 |
| 20260831054836 | 75 | 247 | 1.7 | 1.7 | 0.00 | 0.00 | 0.00 | 85 | 1011.1 |
| 20260831054331 | 75 | 242 | 0.9 | 2.6 | 0.00 | 0.00 | 0.00 | 85 | 1010.9 |
| 20260831053830 | 75 | 240 | 1.7 | 1.7 | 0.00 | 0.00 | 0.00 | 86 | 1011.0 |
| 20260831053329 | 75 | 239 | 2.6 | 2.6 | 0.00 | 0.00 | 0.00 | 87 | 1010.9 |
| 20260831052824 | 75 | 241 | 0.9 | 5.2 | 0.00 | 0.00 | 0.00 | 86 | 1011.0 |
| 20260831052323 | 75 | 227 | 3.5 | 5.2 | 0.00 | 0.00 | 0.00 | 87 | 1010.8 |
| 20260831051821 | 75 | 234 | 1.7 | 7.0 | 0.00 | 0.00 | 0.00 | 87 | 1010.9 |
| 20260831051320 | 75 | 260 | 2.6 | 5.2 | 0.00 | 0.00 | 0.00 | 88 | 1010.9 |
| 20260831050815 | 75 | 250 | 0.9 | 5.2 | 0.00 | 0.00 | 0.00 | 89 | 1010.9 |
| 20260831050314 | 75 | 280 | 1.7 | 2.6 | 0.00 | 0.00 | 0.00 | 89 | 1011.0 |
| 20260831045808 | 75 | 249 | 0.9 | 2.6 | 0.00 | 0.21 | 0.21 | 90 | 1011.0 |
| 20260831045306 | 75 | 263 | 0.9 | 2.6 | 0.00 | 0.21 | 0.21 | 91 | 1011.0 |
| 20260831044758 | 75 | 291 | 0.9 | 1.7 | 0.00 | 0.21 | 0.21 | 92 | 1011.2 |
| 20260831044252 | 74 | 228 | 2.6 | 2.6 | 0.00 | 0.21 | 0.21 | 93 | 1011.0 |
| 20260831043749 | 74 | 260 | 0.9 | 0.9 | 0.00 | 0.21 | 0.21 | 94 | 1011.2 |
| 20260831043243 | 74 | 293 | 0.9 | 4.3 | 0.00 | 0.21 | 0.21 | 94 | 1011.3 |
| 20260831042743 | 74 | 271 | 2.6 | 2.6 | 0.00 | 0.21 | 0.21 | 95 | 1011.3 |
| 20260831042238 | 74 | 294 | 0.9 | 2.6 | 0.00 | 0.21 | 0.21 | 96 | 1011.4 |
| 20260831041733 | 74 | 300 | 0.9 | 1.7 | 0.00 | 0.21 | 0.21 | 96 | 1011.5 |
| 20260831041232 | 74 | 301 | 0.0 | 0.9 | 0.00 | 0.21 | 0.21 | 96 | 1011.8 |
| 20260831040726 | 74 | 301 | 0.9 | 1.7 | 0.00 | 0.21 | 0.21 | 97 | 1011.7 |
| 20260831040226 | 74 | 306 | 0.9 | 1.7 | 0.00 | 0.21 | 0.21 | 97 | 1011.8 |
| 20260831035719 | 74 | 300 | 0.9 | 0.9 | 0.00 | 0.21 | 0.21 | 98 | 1011.6 |
| 20260831035219 | 73 | 292 | 0.9 | 0.9 | 0.00 | 0.21 | 0.21 | 98 | 1011.8 |
| 20260831034718 | 73 | 301 | 0.0 | 0.9 | 0.00 | 0.21 | 0.21 | 99 | 1011.7 |
| 20260831034214 | 73 | 300 | 0.0 | 0.9 | 0.00 | 0.21 | 0.21 | 99 | 1012.1 |
| 20260831033709 | 73 | 305 | 0.0 | 0.9 | 0.00 | 0.21 | 0.21 | 99 | 1011.9 |
| 20260831033208 | 73 | 308 | 0.0 | 1.7 | 0.00 | 0.21 | 0.21 | 99 | 1012.3 |
| 20260831032703 | 73 | 309 | 0.0 | 0.9 | 0.00 | 0.21 | 0.21 | 99 | 1012.3 |
| 20260831032154 | 73 | 305 | 0.0 | 0.0 | 0.00 | 0.21 | 0.21 | 99 | 1012.3 |
| 20260831031653 | 73 | 312 | 0.0 | 0.0 | 0.00 | 0.21 | 0.21 | 99 | 1012.5 |
| 20260831031147 | 73 | 313 | 0.0 | 0.0 | 0.00 | 0.21 | 0.21 | 99 | 1012.7 |
| 20260831030646 | 73 | 310 | 0.9 | 0.9 | 0.00 | 0.21 | 0.21 | 99 | 1012.6 |
| 20260831030145 | 73 | 309 | 0.0 | 0.0 | 0.00 | 0.21 | 0.21 | 99 | 1012.8 |
| 20260831025643 | 73 | 313 | 0.0 | 0.9 | 0.00 | 0.21 | 0.21 | 99 | 1012.5 |
| 20260831025138 | 74 | 313 | 0.0 | 0.0 | 0.07 | 0.21 | 0.21 | 99 | 1012.6 |
| 20260831024635 | 74 | 314 | 0.0 | 0.9 | 0.07 | 0.21 | 0.21 | 98 | 1012.8 |
| 20260831024133 | 74 | 313 | 0.0 | 0.9 | 0.05 | 0.20 | 0.20 | 97 | 1012.8 |
| 20260831023632 | 74 | 303 | 0.9 | 1.7 | 0.05 | 0.20 | 0.20 | 97 | 1012.5 |
| 20260831023126 | 74 | 307 | 0.0 | 0.9 | 0.00 | 0.19 | 0.19 | 98 | 1012.5 |
| 20260831022621 | 74 | 304 | 0.0 | 0.9 | 0.00 | 0.19 | 0.19 | 98 | 1012.7 |
| 20260831022116 | 74 | 311 | 0.0 | 0.9 | 0.00 | 0.19 | 0.19 | 98 | 1012.6 |
| 20260831021615 | 73 | 300 | 0.0 | 0.9 | 0.00 | 0.19 | 0.19 | 98 | 1012.6 |
| 20260831021111 | 73 | 310 | 0.0 | 0.0 | 0.00 | 0.19 | 0.19 | 98 | 1012.8 |
| 20260831020607 | 73 | 311 | 0.0 | 0.0 | 0.00 | 0.19 | 0.19 | 98 | 1012.7 |
| 20260831015557 | 74 | 312 | 0.0 | 0.0 | 0.00 | 0.19 | 0.19 | 97 | 1013.0 |
| 20260831015051 | 74 | 306 | 0.9 | 0.9 | 0.00 | 0.19 | 0.19 | 97 | 1012.7 |
| 20260831014546 | 74 | 310 | 0.0 | 0.9 | 0.00 | 0.19 | 0.19 | 97 | 1012.6 |
| 20260831014042 | 73 | 309 | 0.0 | 0.9 | 0.00 | 0.19 | 0.19 | 98 | 1012.4 |
| 20260831013537 | 73 | 307 | 0.0 | 0.0 | 0.00 | 0.19 | 0.19 | 98 | 1012.3 |
| 20260831013032 | 73 | 305 | 0.0 | 0.0 | 0.00 | 0.19 | 0.19 | 98 | 1012.6 |
| 20260831012527 | 73 | 311 | 0.0 | 0.0 | 0.00 | 0.19 | 0.19 | 98 | 1012.4 |
| 20260831012026 | 73 | 311 | 0.0 | 0.0 | 0.00 | 0.19 | 0.19 | 98 | 1012.4 |
| 20260831011521 | 73 | 310 | 0.0 | 0.0 | 0.00 | 0.19 | 0.19 | 98 | 1012.3 |
| 20260831011016 | 73 | 308 | 0.0 | 0.0 | 0.00 | 0.19 | 0.19 | 98 | 1012.2 |
| 20260831010511 | 73 | 310 | 0.0 | 0.0 | 0.00 | 0.19 | 0.19 | 98 | 1012.2 |
| 20260831010008 | 73 | 313 | 0.0 | 0.0 | 0.00 | 0.19 | 0.19 | 97 | 1012.3 |
| 20260831005502 | 74 | 310 | 0.0 | 0.0 | 0.00 | 0.19 | 0.19 | 97 | 1012.4 |
| 20260831005001 | 74 | 309 | 0.0 | 0.0 | 0.00 | 0.19 | 0.19 | 97 | 1011.9 |
| 20260831004458 | 74 | 310 | 0.0 | 0.0 | 0.00 | 0.19 | 0.19 | 96 | 1011.9 |
| 20260831003954 | 74 | 315 | 0.0 | 0.0 | 0.00 | 0.19 | 0.19 | 96 | 1011.8 |
| 20260831003450 | 74 | 307 | 0.0 | 0.9 | 0.00 | 0.19 | 0.19 | 96 | 1011.8 |
| 20260831002949 | 74 | 316 | 0.0 | 0.0 | 0.00 | 0.19 | 0.19 | 96 | 1011.8 |
| 20260831002448 | 74 | 318 | 0.0 | 0.0 | 0.00 | 0.19 | 0.19 | 96 | 1012.1 |
| 20260831001944 | 74 | 314 | 0.0 | 0.0 | 0.00 | 0.19 | 0.19 | 96 | 1011.7 |
| 20260831001439 | 74 | 315 | 0.0 | 0.0 | 0.00 | 0.19 | 0.19 | 96 | 1012.1 |
| 20260831000936 | 74 | 313 | 0.0 | 0.0 | 0.00 | 0.19 | 0.19 | 96 | 1012.1 |
| 20260831000432 | 74 | 317 | 0.0 | 0.0 | 0.00 | 0.19 | 0.19 | 96 | 1012.2 |
| 20260830235929 | 74 | 313 | 0.0 | 0.0 | 0.00 | 0.19 | 0.19 | 95 | 1012.4 |
| 20260830235425 | 74 | 311 | 0.0 | 0.0 | 0.00 | 0.19 | 0.19 | 95 | 1012.7 |
| 20260830234920 | 74 | 315 | 0.0 | 0.0 | 0.00 | 0.19 | 0.19 | 95 | 1012.4 |
| 20260830234415 | 74 | 316 | 0.0 | 0.9 | 0.00 | 0.19 | 0.19 | 95 | 1012.3 |